Flag for Estonia Weather past 2 weeks in Tartu, Estonia

Now
73 °F

Mild.


Feels Like: 76 °F
Forecast: 59 / 84 °F
Wind: No wind

Location: Tartu/Ulenurme

Current Time: Jul 23, 2014 at 9:33:24 PM

Latest Report: Jul 23, 2014 at 8:50 PM


Visibility: N/A

Pressure: 30.15 "Hg

Humidity: 65%

Dew point: 61 °F

Location of TartuLocation

Historic Weather in Tartu — Graph

°F

Tartu temperature yesterday

Maximum temperature yesterday: 75 °F (at 1:50 PM)
Minimum temperature yesterday: 59 °F (at 2:50 AM)
Average temperature yesterday: 69 °F

Past Weeks' High & Low Weather Summary

 TemperatureHumidityPressure
High79 °F (Jul 13, 4:50 PM)94% (Jul 13, 11:50 PM)30.21 "Hg (Jul 13, 11:50 PM)
Low52 °F (Jul 11, 2:50 AM)37% (Jul 23, 2:50 PM)29.83 "Hg (Jul 13, 4:50 PM)
Average67 °F71%30.04 "Hg
* Reported Jul 8 7:50 PM — Jul 23 7:50 PM, Tartu, Weather by CustomWeather, © 2014

Note: Actual official high and low records may vary slightly from our data, if they occured in-between our weather recording intervals... More about our weather records

Advertising

Tartu weather history for previous 24 hours

 ConditionsComfort  
Time TempWeatherWind HumidityBarometerVisibility
7:50 PM
Jul 23
77 °FWarm.No wind51%30.15 "HgN/A
6:50 PM77 °FPassing clouds.3 mph47%30.15 "HgN/A
5:50 PM77 °FPassing clouds.7 mph47%30.15 "HgN/A
4:50 PM77 °FPassing clouds.7 mph44%30.18 "HgN/A
3:50 PM77 °FPassing clouds.8 mph42%30.18 "HgN/A
2:50 PM79 °FPassing clouds.9 mph37%30.18 "HgN/A
1:50 PM77 °FPassing clouds.8 mph42%30.18 "HgN/A
12:50 PM77 °FPassing clouds.5 mph51%30.18 "HgN/A
11:50 AM75 °FPassing clouds.5 mph54%30.21 "HgN/A
10:50 AM75 °FSunny.2 mph57%30.21 "Hg10 mi
8:50 AM68 °FSunny.2 mph69%30.18 "Hg10 mi
7:50 AM66 °FSunny.1 mph78%30.18 "Hg10 mi
6:50 AM61 °FSunny.1 mph88%30.18 "Hg10 mi
5:50 AM57 °FCool.1 mph88%30.18 "HgN/A
4:50 AM57 °FPassing clouds.No wind82%30.18 "HgN/A
3:50 AM57 °FPassing clouds.3 mph88%30.18 "HgN/A
2:50 AM57 °FCool.2 mph88%30.18 "HgN/A
Weather by CustomWeather, © 2014

See weather overviewHow to use our weather pages